{"data":{"norad_id":57477,"epoch":"2026-05-25T00:28:27.977664Z","epoch_age_seconds":69256,"freshness":"FRESH","line1":"1 57477U 23107W   26145.01976826  .00010404  00000+0  38696-3 0  9993","line2":"2 57477  43.0008 264.7815 0001721 267.8347  92.2308 15.27588313156827","mean_motion":15.27588313,"eccentricity":0.0001721,"inclination_deg":43.0008,"raan_deg":264.7815,"arg_perigee_deg":267.8347,"mean_anomaly_deg":92.2308,"bstar":0.00038696,"rev_number":15682,"period_min":94.266235722373,"perigee_km":481.84339819674,"apogee_km":484.20500988317,"semimajor_km":6861.16120404,"source":"CELESTRAK","updated_at":"2026-05-25T13:38:18.326541Z"}}